Location: *
(24.1434°N, 56.8729°E)
Time: 18:52:58
(UTC+00:00)

CZ-2C R/B - Pass Details

Date: 09 April 2020
Orbit: 785 x 870 km, 98.3° (Epoch: 05 June)

Event Time Altitude Azimuth Distance (km) Brightness Sun altitude
Rises 15:59:56 0° 18° (NNE) 3,280 5.8 -20.3°
Reaches altitude 10° 16:02:17 10° 23° (NNE) 2,354 5.0 -20.8°
Maximum altitude 16:07:22 55° 101° (E) 952 2.6 -21.9°
Enters shadow 16:08:54 41° 153° (SSE) 1,156 3.0 -22.2°
